Location: Mainz
(49.9866°N, 8.2782°E)
Time: 13:02:21
(UTC+02:00)

ISS - Visible Passes

Search period start: 22 September 2020 00:00
Search period end: 02 October 2020 00:00
Orbit: 419 x 420 km, 51.6° (Epoch: 22 September)

Date Brightness Start Highest point End Pass type
(mag) Time Alt. Az. Time Alt. Az. Time Alt. Az.
22 Sep -3.5 20:06:28 10° SW 20:09:44 51° SSE 20:12:59 10° ENE visible
22 Sep -3.0 21:43:11 10° W 21:45:58 53° WNW 21:45:58 53° WNW visible
23 Sep -3.7 20:55:43 10° W 20:59:06 76° NNW 21:00:24 34° ENE visible
23 Sep -0.7 22:32:43 10° WNW 22:33:22 15° WNW 22:33:22 15° WNW visible
24 Sep -3.8 20:08:17 10° WSW 20:11:40 90° SSE 20:14:47 12° ENE visible
24 Sep -2.6 21:45:15 10° W 21:47:45 43° WNW 21:47:45 43° WNW visible
25 Sep -3.5 20:57:47 10° W 21:01:08 63° N 21:02:06 41° ENE visible
25 Sep -0.5 22:34:41 10° WNW 22:35:03 13° WNW 22:35:03 13° WNW visible
26 Sep -3.5 20:10:16 10° W 20:13:39 67° N 20:16:25 14° ENE visible
26 Sep -2.2 21:47:14 10° WNW 21:49:22 36° WNW 21:49:22 36° WNW visible
27 Sep -3.7 20:59:45 10° WNW 21:03:08 69° N 21:03:40 56° ENE visible
28 Sep -3.5 20:12:15 10° W 20:15:37 64° N 20:17:58 18° E visible
28 Sep -1.8 21:49:08 10° WNW 21:50:56 28° W 21:50:56 28° W visible
29 Sep -3.9 21:01:39 10° WNW 21:05:02 83° SSW 21:05:13 77° SE visible
30 Sep -3.8 20:14:09 10° WNW 20:17:32 80° NNE 20:19:33 22° E visible
30 Sep -1.3 21:51:06 10° W 21:52:31 20° W 21:52:31 20° W visible
01 Oct -3.1 21:03:31 10° WNW 21:06:46 45° SSW 21:06:52 45° SSW visible
